Back to catalog

STARLINK-32941

AliveCommunicationsVLEO
NORAD 63119·PAYLOAD·🇺🇸 United States

Launched Feb 27, 2025 from Cape Canaveral Space Force Station

Loading…

Next Passes (next 24 hours)

TLE

FreshSource: CelesTrak SupGP

Epoch: Sep 14, 2026, 22:38 UTC

1 63119C 25039R   26257.94354167 -.00006715  00000+0 -24336-3 0  2578
2 63119  43.0029  12.6039 0001581 267.3721  33.0688 15.27562010    12

Track STARLINK-32941 in real time with AllMySat

Download on the App Store